Погода в Купянске

Украина / Харьковская область     49°42′42″N   37°36′48″E
темп.,
°C
ветер,
м/с
пор.,
м/с
влажн.,
%
обл.,
%
осадки,
мм/ч
давл.,
гПа
погр.,
м
12 апреля, пн
пн1200:00+9св61164100 0.0 1024598
03:00+8св51085100 0.0 1024296
06:00+7св51097100 0.0 1023277
09:00+12всв61078100 0.0 1022450
12:00+19в6846100 0.0 1021977
15:00+22вюв7103266 0.0 10201838
18:00+19юв61142100 0.0 1020459
21:00+14юв346160 0.0 102249
13 апреля, вт
вт1300:00+12в227076 0.0 102218
03:00+11в118081 0.0 102210
06:00+10вюв238796 0.0 102244
09:00+14вюв467078 0.0 1022491
12:00+15юв585580 0.0 1022981
15:00+15ююв595897 0.0 1022771
18:00+13юв41166100 0.0 1021677
21:00+12ююв3974100 0.0 1022370
14 апреля, ср
ср1400:00+11в228398 0.0 102119
03:00+10в228997 0.0 102014
06:00+9вюв119196 0.0 101910
09:00+13ююв2374100 0.0 1019423
12:00+16ююв356181 0.0 10181102
15:00+18ю4551100 0.4 10171476
18:00+16зюз2259100 0.4 1017278
21:00+13ссз2267100 0.4 101727
15 апреля, чт
чт1500:00+12ссв3375100 0.0 101663
03:00+12св3569100 0.0 101589
06:00+11в2360100 0.0 101432
09:00+14в1150100 0.0 1014252
12:00+18ююв1242100 0.0 1013983
15:00+19юв3636100 0.0 10122717
18:00+15ю3661100 0.3 1013546
21:00+13юв2473100 0.4 1012151
16 апреля, пт
пт1600:00+12юз597499 0.1 1012360
03:00+11ююз247690 0.2 1012176
06:00+9ю3587100 0.0 1013124
09:00+12ююз3471100 0.0 1013630
12:00+14ю346082 0.3 10131081
15:00+15ююв4553100 1.0 10121338
18:00+12юз3468100 0.6 1013670
21:00+11ю4773100 0.6 1014327